Weather History for Drummond Island, MI

Change the Weather History Date:

Sunday, March 31, 2013

  Actual Average (KCIU) Record (KCIU)
Temperature  
Mean Temperature 32 °F -  
Max Temperature 37 °F 44 °F 64 °F (1999)
Min Temperature 25 °F 22 °F 8 °F (1997)
Degree Days  
Heating Degree Days 34    
Moisture  
Dew Point 34 °F    
Average Humidity 95    
Maximum Humidity 100    
Minimum Humidity 78    
Precipitation  
Precipitation 0.00 in - - ()
Sea Level Pressure  
Sea Level Pressure 29.60 in    
Wind  
Wind Speed 5 mph (WSW)    
Max Wind Speed 13 mph    
Max Gust Speed 21 mph    
Visibility 5 miles    
Events Fog , Rain , Snow    
Averages and records for this station are not official NWS values.
T = Trace of Precipitation, MM = Missing Value Source: NWS Daily Summary

Daily Weather History Graph

Daily Weather History Graph

Search for Another Location

Airport:

Trip Planner

Search our weather history database for the weather conditions in past years. The results will help you decide how hot, cold, wet, or windy it might be!

Date:

Astronomy

Mar. 31, 2013 Rise Set
Actual Time 7:16 AM EDT 8:02 PM EDT
Civil Twilight 6:46 AM EDT 8:32 PM EDT
Nautical Twilight 6:10 AM EDT 9:08 PM EDT
Astronomical Twilight 5:32 AM EDT 9:46 PM EDT
Moon 12:20 AM EDT 9:49 AM EDT
Length of Visible Light 13h 46m
Length of Day
12h 46m
Waning Gibbous, 78% of the Moon is Illuminated
Mar 31
Waning Gibbous
Apr 3
Last Quarter
Apr 10
New
Apr 18
First Quarter
Apr 25
Full

Hourly Weather History & Observations

Time (EDT) Temp. Windchill Dew Point Humidity Pressure Visibility Wind Dir Wind Speed Gust Speed Precip Events Conditions
12:17 AM 37.4 °F 33.8 °F 34.9 °F 91% 29.79 in 7.0 mi SW 4.6 mph - N/A   Drizzle
12:36 AM 37.0 °F 33.3 °F 35.6 °F 95% 29.79 in 5.0 mi SW 4.6 mph - N/A Rain Rain
12:57 AM 36.9 °F 32.2 °F 35.8 °F 96% 29.77 in 5.0 mi SSW 5.8 mph - N/A Rain Rain
1:17 AM 36.9 °F 33.1 °F 36.1 °F 97% 29.75 in 5.0 mi SSE 4.6 mph - N/A Rain Light Rain
1:37 AM 36.5 °F 31.8 °F 36.0 °F 98% 29.74 in 5.0 mi SSE 5.8 mph - N/A   Drizzle
1:57 AM 36.5 °F 31.8 °F 36.1 °F 99% 29.73 in 5.0 mi SSE 5.8 mph - N/A   Drizzle
2:16 AM 37.0 °F 31.6 °F 36.9 °F 99% 29.72 in 4.0 mi South 6.9 mph - N/A Rain Light Rain
2:37 AM 37.6 °F 33.1 °F 37.4 °F 99% 29.71 in 5.0 mi South 5.8 mph - N/A Rain Light Rain
2:57 AM 37.4 °F 32.8 °F 36.9 °F 98% 29.69 in 5.0 mi SSE 5.8 mph - N/A Rain Light Rain
3:17 AM 37.6 °F 32.3 °F 37.0 °F 98% 29.68 in 7.0 mi South 6.9 mph - N/A Rain Light Rain
3:37 AM 37.9 °F 31.5 °F 36.9 °F 96% 29.67 in 7.0 mi South 9.2 mph 16.1 mph N/A Rain Rain
3:56 AM 37.6 °F 31.6 °F 36.5 °F 96% 29.66 in 10.0 mi South 8.1 mph - N/A   Drizzle
4:17 AM 37.0 °F 31.6 °F 36.5 °F 98% 29.65 in 5.0 mi South 6.9 mph - N/A Rain Light Rain
4:37 AM 36.9 °F 32.2 °F 36.5 °F 99% 29.65 in 4.0 mi SSW 5.8 mph - N/A Rain Rain
4:56 AM 36.7 °F 32.0 °F 36.5 °F 99% 29.64 in 3.0 mi SSW 5.8 mph - N/A   Light Drizzle
5:17 AM 36.5 °F 32.7 °F 36.5 °F 100% 29.63 in 2.0 mi SSW 4.6 mph - N/A Rain Light Rain
5:37 AM 36.5 °F 33.9 °F 36.5 °F 100% 29.62 in 2.0 mi South 3.5 mph - N/A   Overcast
5:56 AM 36.0 °F - 36.0 °F 100% 29.62 in 1.0 mi Calm Calm - N/A   Overcast
6:17 AM 36.1 °F - 36.1 °F 100% 29.61 in 0.5 mi Calm Calm - N/A Fog Fog
6:37 AM 35.6 °F - 35.6 °F 100% 29.61 in 0.5 mi Calm Calm - N/A Fog Fog
6:56 AM 36.0 °F - 36.0 °F 100% 29.61 in 0.5 mi Calm Calm - N/A Fog Fog
7:17 AM 36.1 °F - 36.1 °F 100% 29.60 in 0.2 mi Calm Calm - N/A Fog Fog
7:37 AM 35.8 °F - 35.8 °F 100% 29.60 in 0.2 mi Calm Calm - N/A Fog Fog
7:57 AM 35.6 °F - 35.6 °F 100% 29.60 in 0.2 mi Calm Calm - N/A Fog Fog
8:17 AM 36.5 °F - 36.5 °F 100% 29.60 in 0.2 mi Calm Calm - N/A Fog Fog
8:36 AM 36.0 °F - 36.0 °F 100% 29.59 in 0.2 mi Calm Calm - N/A Fog Fog
8:57 AM 36.0 °F - 36.0 °F 100% 29.59 in 0.2 mi Calm Calm - N/A Fog Fog
9:17 AM 35.6 °F - 35.6 °F 100% 29.58 in 1.0 mi Calm Calm - N/A   Overcast
9:36 AM 36.0 °F 33.3 °F 36.0 °F 100% 29.58 in 2.0 mi SW 3.5 mph - N/A   Overcast
9:57 AM 35.8 °F 30.9 °F 35.8 °F 100% 29.57 in 1.8 mi WSW 5.8 mph - N/A   Overcast
10:17 AM 35.6 °F 32.8 °F 35.6 °F 100% 29.57 in 1.0 mi WSW 3.5 mph - N/A   Overcast
10:36 AM 36.1 °F 31.4 °F 36.1 °F 100% 29.57 in 2.5 mi WSW 5.8 mph - N/A   Overcast
10:57 AM 36.5 °F 30.3 °F 36.5 °F 100% 29.56 in 4.0 mi WSW 8.1 mph - N/A   Overcast
11:17 AM 36.9 °F 32.2 °F 36.7 °F 99% 29.56 in 5.0 mi SW 5.8 mph - N/A   Overcast
11:36 AM 37.4 °F 32.8 °F 36.0 °F 95% 29.55 in 7.0 mi WSW 5.8 mph - N/A   Overcast
11:57 AM 37.4 °F 32.8 °F 35.8 °F 94% 29.55 in 7.0 mi WSW 5.8 mph - N/A   Overcast
12:17 PM 36.7 °F 31.2 °F 35.4 °F 95% 29.55 in 5.0 mi WSW 6.9 mph - N/A   Overcast
12:37 PM 36.3 °F 30.8 °F 35.1 °F 95% 29.55 in 5.0 mi SW 6.9 mph - N/A   Overcast
12:57 PM 36.5 °F 31.0 °F 35.1 °F 95% 29.54 in 5.0 mi WSW 6.9 mph - N/A   Overcast
1:16 PM 36.0 °F 31.1 °F 34.7 °F 95% 29.54 in 5.0 mi West 5.8 mph - N/A   Overcast
1:37 PM 36.0 °F 31.1 °F 34.5 °F 94% 29.54 in 7.0 mi West 5.8 mph - N/A   Overcast
1:57 PM 35.6 °F 29.9 °F 34.3 °F 95% 29.53 in 5.0 mi WSW 6.9 mph - N/A Rain Light Rain
2:16 PM 34.9 °F 32.0 °F 34.5 °F 99% 29.53 in 2.5 mi WSW 3.5 mph - N/A   Overcast
2:37 PM 35.4 °F 30.5 °F 34.9 °F 98% 29.53 in 1.5 mi NW 5.8 mph - N/A   Overcast
2:57 PM 35.6 °F 32.8 °F 35.2 °F 99% 29.53 in 3.0 mi West 3.5 mph - N/A   Overcast
3:16 PM 35.8 °F 31.9 °F 35.1 °F 97% 29.53 in 5.0 mi West 4.6 mph - N/A   Overcast
3:37 PM 36.5 °F 31.8 °F 34.5 °F 93% 29.53 in 7.0 mi WNW 5.8 mph - N/A   Overcast
3:57 PM 36.5 °F 31.0 °F 34.0 °F 91% 29.53 in 10.0 mi WNW 6.9 mph - N/A   Overcast
4:17 PM 36.5 °F 31.0 °F 33.1 °F 87% 29.53 in 10.0 mi West 6.9 mph - N/A   Overcast
4:37 PM 36.5 °F 31.8 °F 33.1 °F 87% 29.52 in 10.0 mi WSW 5.8 mph - N/A   Overcast
4:56 PM 36.0 °F 32.1 °F 33.1 °F 89% 29.53 in 10.0 mi West 4.6 mph - N/A   Overcast
5:17 PM 36.0 °F 30.3 °F 33.1 °F 89% 29.53 in 10.0 mi West 6.9 mph - N/A   Overcast
5:37 PM 36.5 °F 31.0 °F 33.3 °F 88% 29.53 in 10.0 mi West 6.9 mph - N/A   Overcast
5:56 PM 36.3 °F 31.6 °F 33.1 °F 88% 29.53 in 10.0 mi West 5.8 mph - N/A   Drizzle
6:17 PM 33.3 °F 28.9 °F 32.2 °F 96% 29.54 in 0.8 mi WNW 4.6 mph - N/A Snow Light Snow
6:37 PM 32.4 °F 27.9 °F 32.4 °F 100% 29.54 in 1.0 mi WNW 4.6 mph - N/A Snow Light Snow
6:56 PM 32.4 °F 26.0 °F 32.4 °F 100% 29.54 in 1.0 mi NW 6.9 mph - N/A Snow Light Snow
7:17 PM 32.0 °F 28.7 °F 32.0 °F 100% 29.55 in 1.0 mi NW 3.5 mph - N/A Snow Light Snow
7:37 PM 32.0 °F 26.4 °F 32.0 °F 100% 29.55 in 0.5 mi WNW 5.8 mph - N/A Snow Snow
8:17 PM 32.0 °F - 31.6 °F 99% 29.55 in 10.0 mi Calm Calm - N/A   Overcast
8:36 PM 32.0 °F - 31.1 °F 96% 29.56 in 10.0 mi Calm Calm - N/A   Overcast
8:57 PM 32.0 °F 26.4 °F 31.1 °F 96% 29.57 in 10.0 mi WNW 5.8 mph - N/A   Overcast
9:16 PM 31.3 °F 23.3 °F 28.2 °F 88% 29.58 in 10.0 mi WNW 9.2 mph - N/A   Overcast
9:37 PM 29.7 °F 22.0 °F 27.1 °F 90% 29.59 in 10.0 mi WNW 8.1 mph 17.3 mph N/A   Overcast
9:57 PM 29.3 °F 20.8 °F 26.4 °F 89% 29.60 in 10.0 mi WNW 9.2 mph 16.1 mph N/A   Overcast
10:16 PM 28.8 °F 19.5 °F 25.3 °F 87% 29.61 in 10.0 mi West 10.4 mph 17.3 mph N/A   Overcast
10:37 PM 27.9 °F 18.4 °F 22.5 °F 80% 29.62 in 10.0 mi WNW 10.4 mph 18.4 mph N/A   Overcast
10:56 PM 27.3 °F 18.4 °F 22.5 °F 82% 29.62 in 10.0 mi WNW 9.2 mph 19.6 mph N/A   Overcast
11:17 PM 26.6 °F 15.7 °F 20.8 °F 79% 29.62 in 10.0 mi WNW 12.7 mph 20.7 mph N/A   Overcast
11:37 PM 26.1 °F 16.2 °F 20.3 °F 79% 29.62 in 10.0 mi WNW 10.4 mph 19.6 mph N/A   Overcast
11:56 PM 25.5 °F 16.2 °F 19.4 °F 78% 29.63 in 10.0 mi WNW 9.2 mph 18.4 mph N/A   Overcast